Location: NJAA Observatory
(40.6819°N, 74.8979°W)
Time: 20:41:22
(UTC-04:00)

Cosmos 2263 Rocket - Visible Passes

Search period start: 25 July 2016 00:00
Search period end: 04 August 2016 00:00
Orbit: 824 x 848 km, 71.0° (Epoch: 25 July)

Date Brightness Start Highest point End Pass type
(mag) Time Alt. Az. Time Alt. Az. Time Alt. Az.
25 Jul 5.5 04:22:09 10° NNE 04:25:19 15° NE 04:28:30 10° E visible
25 Jul 3.7 20:54:26 10° SW 20:59:48 42° WNW 21:05:10 10° N visible
26 Jul 5.5 04:05:40 10° NNE 04:08:33 14° NE 04:11:26 10° ENE visible
27 Jul 5.5 03:49:14 10° NNE 03:51:47 13° NE 03:54:19 10° ENE visible
28 Jul 5.4 03:32:52 10° NNE 03:35:00 12° NE 03:37:08 10° ENE visible
28 Jul 2.5 05:14:22 10° NNW 05:19:58 73° ENE 05:25:30 10° SSE visible
29 Jul 5.5 03:16:35 10° NNE 03:18:13 11° NE 03:19:50 10° ENE visible
29 Jul 2.6 04:57:41 10° NNW 05:03:16 67° ENE 05:08:46 10° SSE visible
29 Jul 5.8 21:37:40 10° NW 21:38:07 10° NW 21:38:34 10° NW visible
30 Jul 5.5 03:00:35 10° NE 03:01:25 10° NE 03:02:16 10° NE visible
30 Jul 2.8 04:41:01 10° NNW 04:46:34 61° ENE 04:52:02 10° SE visible
30 Jul 5.8 21:19:51 10° WNW 21:21:20 11° NW 21:22:48 10° NNW visible
31 Jul 2.9 04:24:21 10° NNW 04:29:51 56° ENE 04:35:18 10° SE visible
31 Jul 5.6 21:02:31 10° WNW 21:04:32 12° NW 21:06:34 10° NNW visible
01 Aug 3.0 04:07:41 10° NNW 04:13:08 52° ENE 04:18:33 10° SE visible
01 Aug 5.5 20:45:19 10° WNW 20:47:46 13° NW 20:50:13 10° NNW visible
02 Aug 3.1 03:51:02 10° NNW 03:56:26 48° ENE 04:01:46 10° SE visible
03 Aug 3.3 03:34:23 10° NNW 03:39:43 44° ENE 03:45:00 10° SE visible
03 Aug 3.1 05:18:53 10° NW 05:23:20 25° WSW 05:27:46 10° SSW visible
